When you browse on this site, cookies collect data to enhance your experience and personalize the content and advertising you see.
Visit our Privacy Policy to learn more. By continuing to use the site, you agree to this use of cookies and data.
  • în România
  • Lista ţărilor
  • Pe 7 zile
  • Temperatura apei
  • Hartă satelitară
  • Meteo pe hartă
  • Widget-uri
  • user-avatar
    Intrare

    Meteo pe oră la Nagutskoe

    Astăzi, 26 Iunie, Miercuri

    Timp Temperatura Precipitaţii Vânt Presiune Umiditate
    00:00 +23°C° 0.3 mm 2 m/s 724 mmHg 82%
    01:00 +21°C° 0.3 mm 2 m/s 724 mmHg 84%
    02:00 +21°C° 0.3 mm 2 m/s 724 mmHg 86%
    03:00 +20°C° 0 mm 2 m/s 724 mmHg 85%
    04:00 +22°C° 0.4 mm 1 m/s 724 mmHg 83%
    05:00 +22°C° 0.4 mm 1 m/s 724 mmHg 82%
    06:00 +21°C° 0.4 mm 0 m/s 725 mmHg 81%
    07:00 +24°C° 0.2 mm 1 m/s 725 mmHg 75%
    08:00 +25°C° 0.2 mm 1 m/s 725 mmHg 69%
    09:00 +27°C° 0.2 mm 2 m/s 725 mmHg 64%
    10:00 +28°C° 0 mm 2 m/s 725 mmHg 60%
    11:00 +29°C° 0 mm 3 m/s 725 mmHg 57%
    12:00 +30°C° 0 mm 4 m/s 725 mmHg 54%
    13:00 +30°C° 0 mm 4 m/s 725 mmHg 53%
    14:00 +30°C° 0 mm 4 m/s 725 mmHg 53%
    15:00 +32°C° 0 mm 4 m/s 724 mmHg 52%
    16:00 +30°C° 0 mm 3 m/s 724 mmHg 55%
    17:00 +30°C° 0 mm 3 m/s 724 mmHg 58%
    18:00 +29°C° 0 mm 2 m/s 724 mmHg 61%
    19:00 +28°C° 0.4 mm 2 m/s 724 mmHg 64%
    20:00 +26°C° 0.4 mm 2 m/s 724 mmHg 68%
    21:00 +25°C° 0.4 mm 2 m/s 724 mmHg 71%
    22:00 +24°C° 1 mm 2 m/s 723 mmHg 77%
    23:00 +21°C° 1 mm 2 m/s 723 mmHg 83%

    Mâine, 27 Iunie, Joi

    Timp Temperatura Precipitaţii Vânt Presiune Umiditate
    00:00 +20°C° 1 mm 2 m/s 723 mmHg 90%
    01:00 +21°C° 0 mm 1 m/s 722 mmHg 90%
    02:00 +21°C° 0 mm 1 m/s 722 mmHg 91%
    03:00 +18°C° 0 mm 0 m/s 722 mmHg 92%
    04:00 +19°C° 0 mm 0 m/s 722 mmHg 92%
    05:00 +21°C° 0 mm 1 m/s 722 mmHg 91%
    06:00 +21°C° 0 mm 1 m/s 722 mmHg 90%
    07:00 +23°C° 0.1 mm 1 m/s 722 mmHg 84%
    08:00 +24°C° 0.1 mm 1 m/s 722 mmHg 79%
    09:00 +26°C° 0.1 mm 1 m/s 722 mmHg 73%
    10:00 +27°C° 0.4 mm 1 m/s 722 mmHg 67%
    11:00 +28°C° 0.4 mm 2 m/s 721 mmHg 61%
    12:00 +30°C° 0.4 mm 2 m/s 721 mmHg 56%
    13:00 +30°C° 0.1 mm 3 m/s 721 mmHg 55%
    14:00 +30°C° 0.1 mm 3 m/s 720 mmHg 54%
    15:00 +30°C° 0.1 mm 3 m/s 720 mmHg 53%
    16:00 +30°C° 0.2 mm 3 m/s 720 mmHg 56%
    17:00 +29°C° 0.2 mm 2 m/s 719 mmHg 59%
    18:00 +29°C° 0.2 mm 2 m/s 719 mmHg 62%
    19:00 +27°C° 0.1 mm 2 m/s 719 mmHg 67%
    20:00 +25°C° 0.1 mm 1 m/s 718 mmHg 71%
    21:00 +24°C° 0.1 mm 1 m/s 718 mmHg 75%
    22:00 +23°C° 0 mm 1 m/s 718 mmHg 78%
    23:00 +21°C° 0 mm 0 m/s 718 mmHg 80%

    Poimâine, 28 Iunie, Vineri

    Timp Temperatura Precipitaţii Vânt Presiune Umiditate
    00:00 +20°C° 0 mm 0 m/s 717 mmHg 82%
    01:00 +20°C° 0 mm 0 m/s 717 mmHg 83%
    02:00 +21°C° 0 mm 1 m/s 717 mmHg 84%
    03:00 +21°C° 0 mm 1 m/s 716 mmHg 85%
    04:00 +21°C° 0.1 mm 1 m/s 716 mmHg 85%
    05:00 +21°C° 0.1 mm 2 m/s 716 mmHg 84%
    06:00 +21°C° 0.1 mm 2 m/s 716 mmHg 83%
    07:00 +24°C° 0.1 mm 2 m/s 716 mmHg 78%
    08:00 +26°C° 0.1 mm 2 m/s 716 mmHg 73%
    09:00 +27°C° 0.1 mm 2 m/s 716 mmHg 68%
    10:00 +28°C° 1 mm 2 m/s 715 mmHg 65%
    11:00 +29°C° 1 mm 2 m/s 715 mmHg 62%
    12:00 +29°C° 1 mm 3 m/s 715 mmHg 59%
    13:00 +29°C° 0.9 mm 2 m/s 715 mmHg 59%
    14:00 +29°C° 0.9 mm 2 m/s 714 mmHg 59%
    15:00 +29°C° 0.9 mm 2 m/s 714 mmHg 59%
    16:00 +27°C° 5.3 mm 2 m/s 714 mmHg 71%
    17:00 +24°C° 5.3 mm 2 m/s 714 mmHg 83%
    18:00 +21°C° 5.3 mm 2 m/s 714 mmHg 94%
    19:00 +21°C° 0.5 mm 2 m/s 714 mmHg 93%
    20:00 +21°C° 0.5 mm 2 m/s 715 mmHg 91%
    21:00 +21°C° 0.5 mm 1 m/s 715 mmHg 90%
    22:00 +20°C° 0.4 mm 2 m/s 715 mmHg 89%
    23:00 +20°C° 0.4 mm 2 m/s 715 mmHg 88%

    29 Iunie, Sâmbătă

    Timp Temperatura Precipitaţii Vânt Presiune Umiditate
    00:00 +20°C° 0.4 mm 2 m/s 715 mmHg 87%
    01:00 +19°C° 0 mm 3 m/s 715 mmHg 89%
    02:00 +19°C° 0 mm 3 m/s 715 mmHg 90%
    03:00 +18°C° 0 mm 3 m/s 715 mmHg 92%
    04:00 +18°C° 0 mm 3 m/s 715 mmHg 91%
    05:00 +18°C° 0 mm 4 m/s 715 mmHg 90%
    06:00 +19°C° 0 mm 4 m/s 715 mmHg 90%
    07:00 +19°C° 0.1 mm 4 m/s 715 mmHg 87%
    08:00 +20°C° 0.1 mm 4 m/s 715 mmHg 84%
    09:00 +20°C° 0.1 mm 4 m/s 716 mmHg 81%
    10:00 +20°C° 0.3 mm 3 m/s 716 mmHg 79%
    11:00 +21°C° 0.3 mm 3 m/s 716 mmHg 78%
    12:00 +21°C° 0.3 mm 3 m/s 716 mmHg 76%
    13:00 +21°C° 0.4 mm 3 m/s 716 mmHg 75%
    14:00 +21°C° 0.4 mm 3 m/s 716 mmHg 73%
    15:00 +21°C° 0.4 mm 2 m/s 716 mmHg 72%
    16:00 +21°C° 0.8 mm 2 m/s 716 mmHg 75%
    17:00 +20°C° 0.8 mm 2 m/s 716 mmHg 79%
    18:00 +21°C° 0.8 mm 1 m/s 717 mmHg 82%
    19:00 +19°C° 0.4 mm 2 m/s 717 mmHg 85%
    20:00 +18°C° 0.4 mm 2 m/s 717 mmHg 88%
    21:00 +17°C° 0.4 mm 3 m/s 718 mmHg 91%
    22:00 +17°C° 0.4 mm 2 m/s 718 mmHg 91%
    23:00 +16°C° 0.4 mm 2 m/s 718 mmHg 91%

    30 Iunie, Duminică

    Timp Temperatura Precipitaţii Vânt Presiune Umiditate
    00:00 +16°C° 0.4 mm 2 m/s 718 mmHg 91%
    01:00 +16°C° 0 mm 2 m/s 718 mmHg 90%
    02:00 +16°C° 0 mm 2 m/s 718 mmHg 89%
    03:00 +16°C° 0 mm 1 m/s 718 mmHg 87%
    04:00 +16°C° 0 mm 1 m/s 718 mmHg 88%
    05:00 +16°C° 0 mm 1 m/s 718 mmHg 88%
    06:00 +16°C° 0 mm 1 m/s 718 mmHg 88%
    07:00 +18°C° 0.1 mm 1 m/s 718 mmHg 86%
    08:00 +18°C° 0.1 mm 1 m/s 718 mmHg 84%
    09:00 +18°C° 0.1 mm 1 m/s 718 mmHg 82%
    10:00 +16°C° 0.9 mm 2 m/s 718 mmHg 85%
    11:00 +16°C° 0.9 mm 3 m/s 718 mmHg 88%
    12:00 +14°C° 0.9 mm 4 m/s 718 mmHg 91%
    13:00 +14°C° 2.2 mm 4 m/s 719 mmHg 90%
    14:00 +14°C° 2.2 mm 4 m/s 719 mmHg 90%
    15:00 +14°C° 2.2 mm 3 m/s 719 mmHg 90%
    16:00 +14°C° 0.2 mm 3 m/s 720 mmHg 90%
    17:00 +14°C° 0.2 mm 3 m/s 720 mmHg 90%
    18:00 +14°C° 0.2 mm 3 m/s 720 mmHg 90%
    19:00 +13°C° 0.1 mm 3 m/s 720 mmHg 90%
    20:00 +14°C° 0.1 mm 2 m/s 721 mmHg 90%
    21:00 +13°C° 0.1 mm 2 m/s 721 mmHg 91%
    22:00 +13°C° 0 mm 2 m/s 721 mmHg 90%
    23:00 +12°C° 0 mm 2 m/s 721 mmHg 89%

    1 Iulie, Luni

    Timp Temperatura Precipitaţii Vânt Presiune Umiditate
    00:00 +11°C° 0 mm 3 m/s 721 mmHg 89%
    01:00 +10°C° 0 mm 2 m/s 721 mmHg 88%
    02:00 +10°C° 0 mm 2 m/s 721 mmHg 88%
    03:00 +10°C° 0 mm 2 m/s 721 mmHg 87%
    04:00 +10°C° 0 mm 2 m/s 721 mmHg 85%
    05:00 +12°C° 0 mm 2 m/s 721 mmHg 83%
    06:00 +13°C° 0 mm 2 m/s 721 mmHg 81%
    07:00 +13°C° 0 mm 3 m/s 721 mmHg 75%
    08:00 +16°C° 0 mm 3 m/s 721 mmHg 68%
    09:00 +18°C° 0 mm 4 m/s 721 mmHg 61%
    10:00 +19°C° 0 mm 4 m/s 721 mmHg 59%
    11:00 +20°C° 0 mm 4 m/s 721 mmHg 57%
    12:00 +20°C° 0 mm 4 m/s 720 mmHg 54%
    13:00 +20°C° 0.2 mm 4 m/s 720 mmHg 55%
    14:00 +20°C° 0.2 mm 4 m/s 720 mmHg 57%
    15:00 +20°C° 0.2 mm 4 m/s 720 mmHg 58%
    16:00 +20°C° 0.5 mm 4 m/s 720 mmHg 63%
    17:00 +19°C° 0.5 mm 3 m/s 720 mmHg 69%
    18:00 +18°C° 0.5 mm 3 m/s 720 mmHg 74%
    19:00 +17°C° 0.4 mm 3 m/s 720 mmHg 77%
    20:00 +14°C° 0.4 mm 3 m/s 721 mmHg 79%
    21:00 +13°C° 0.4 mm 3 m/s 721 mmHg 82%
    22:00 +13°C° 0.1 mm 3 m/s 721 mmHg 84%
    23:00 +12°C° 0.1 mm 4 m/s 721 mmHg 85%
    Arată mai mult